User: anonymous   Login
Location: �couen
(49.0206°N, 2.3831°E)
Time: 11:12:57
(UTC+00:00)
Language:

FENGYUN 1C DEB - Orbit

View from above orbital plane
View from above orbital plane
View from above satellite
View from above satellite

Ground track
Ground track

The orbit data is extracted from the following two-line orbital elements,

1 30702U 99025ARL 23086.93137939  .00002003  00000-0  13619-2 0  9997
2 30702  98.8450 129.8263 0076083 175.4186 308.1354 13.99756890822828
Epoch (UTC): 27 March 2023 22:21:11
Eccentricity: 0.0076083
inclination: 98.8450°
perigee height: 839 km
apogee height: 950 km
right ascension of ascending node: 129.8263°
argument of perigee: 175.4186°
revolutions per day: 13.99756890
mean anomaly at epoch: 308.1354°
orbit number at epoch: 82282

The dashed part of the orbit path shows where the satellite is in the earth's shadow,  

DLR